When you browse on this site, cookies collect data to enhance your experience and personalize the content and advertising you see.
Visit our Privacy Policy to learn more. By continuing to use the site, you agree to this use of cookies and data.
  • In United Kingdom
  • List of Countries
  • For 7 days
  • Water Temperature
  • Weather Map
  • Weather Widgets
  • user-avatar
    Login

    Hourly Weather Djibouti

    Today, 28 May, Thursday

    Time Temperature Precipitation Wind Pressure Humidity
    00:00 +32°C° 0 mm 0 mps 754 mmHg 61%
    01:00 +32°C° 0 mm 0 mps 754 mmHg 60%
    02:00 +32°C° 0 mm 0 mps 754 mmHg 59%
    03:00 +32°C° 0 mm 0 mps 753 mmHg 58%
    04:00 +32°C° 0 mm 0 mps 754 mmHg 60%
    05:00 +34°C° 0 mm 1 mps 754 mmHg 61%
    06:00 +34°C° 0 mm 1 mps 754 mmHg 62%
    07:00 +35°C° 0 mm 1 mps 755 mmHg 56%
    08:00 +36°C° 0 mm 1 mps 755 mmHg 50%
    09:00 +37°C° 0 mm 1 mps 755 mmHg 44%
    10:00 +39°C° 0 mm 2 mps 755 mmHg 40%
    11:00 +42°C° 0 mm 4 mps 754 mmHg 35%
    12:00 +43°C° 0 mm 5 mps 754 mmHg 30%
    13:00 +43°C° 0 mm 5 mps 753 mmHg 33%
    14:00 +43°C° 0 mm 5 mps 752 mmHg 36%
    15:00 +42°C° 0 mm 5 mps 752 mmHg 39%
    16:00 +42°C° 0 mm 4 mps 752 mmHg 39%
    17:00 +40°C° 0 mm 3 mps 752 mmHg 39%
    18:00 +40°C° 0 mm 3 mps 752 mmHg 39%
    19:00 +38°C° 0 mm 2 mps 753 mmHg 46%
    20:00 +37°C° 0 mm 2 mps 753 mmHg 53%
    21:00 +34°C° 0 mm 1 mps 754 mmHg 61%
    22:00 +35°C° 0 mm 1 mps 754 mmHg 59%
    23:00 +35°C° 0 mm 1 mps 753 mmHg 58%

    Tomorrow, 29 May, Friday

    Time Temperature Precipitation Wind Pressure Humidity
    00:00 +35°C° 0 mm 1 mps 753 mmHg 56%
    01:00 +35°C° 0 mm 1 mps 753 mmHg 57%
    02:00 +33°C° 0 mm 0 mps 752 mmHg 57%
    03:00 +32°C° 0 mm 0 mps 752 mmHg 58%
    04:00 +32°C° 0 mm 0 mps 752 mmHg 58%
    05:00 +32°C° 0 mm 0 mps 752 mmHg 58%
    06:00 +32°C° 0 mm 0 mps 752 mmHg 58%
    07:00 +34°C° 0 mm 0 mps 753 mmHg 50%
    08:00 +35°C° 0 mm 0 mps 754 mmHg 41%
    09:00 +40°C° 0 mm 1 mps 754 mmHg 33%
    10:00 +42°C° 0 mm 2 mps 754 mmHg 28%
    11:00 +44°C° 0 mm 3 mps 753 mmHg 22%
    12:00 +46°C° 0 mm 3 mps 752 mmHg 17%
    13:00 +45°C° 0 mm 4 mps 752 mmHg 21%
    14:00 +46°C° 0 mm 5 mps 751 mmHg 25%
    15:00 +45°C° 0 mm 6 mps 750 mmHg 28%
    16:00 +43°C° 0 mm 5 mps 750 mmHg 29%
    17:00 +42°C° 0 mm 4 mps 750 mmHg 30%
    18:00 +42°C° 0 mm 3 mps 750 mmHg 31%
    19:00 +40°C° 0 mm 3 mps 751 mmHg 32%
    20:00 +39°C° 0 mm 3 mps 751 mmHg 34%
    21:00 +39°C° 0 mm 2 mps 752 mmHg 35%
    22:00 +38°C° 0 mm 2 mps 752 mmHg 37%
    23:00 +37°C° 0 mm 2 mps 751 mmHg 38%

    Day after tomorrow, 30 May, Saturday

    Time Temperature Precipitation Wind Pressure Humidity
    00:00 +35°C° 0 mm 1 mps 751 mmHg 40%
    01:00 +36°C° 0 mm 2 mps 751 mmHg 38%
    02:00 +36°C° 0 mm 2 mps 751 mmHg 37%
    03:00 +35°C° 0 mm 2 mps 751 mmHg 35%
    04:00 +35°C° 0 mm 2 mps 751 mmHg 35%
    05:00 +35°C° 0 mm 2 mps 751 mmHg 36%
    06:00 +34°C° 0 mm 1 mps 751 mmHg 37%
    07:00 +36°C° 0 mm 1 mps 752 mmHg 31%
    08:00 +39°C° 0 mm 1 mps 752 mmHg 26%
    09:00 +42°C° 0 mm 1 mps 753 mmHg 21%
    10:00 +43°C° 0 mm 2 mps 752 mmHg 18%
    11:00 +45°C° 0 mm 3 mps 752 mmHg 16%
    12:00 +47°C° 0 mm 4 mps 752 mmHg 13%
    13:00 +48°C° 0 mm 4 mps 751 mmHg 14%
    14:00 +48°C° 0 mm 4 mps 750 mmHg 15%
    15:00 +48°C° 0 mm 4 mps 750 mmHg 15%
    16:00 +47°C° 0 mm 4 mps 750 mmHg 18%
    17:00 +45°C° 0 mm 4 mps 750 mmHg 21%
    18:00 +43°C° 0 mm 4 mps 750 mmHg 24%
    19:00 +42°C° 0 mm 4 mps 750 mmHg 29%
    20:00 +41°C° 0 mm 5 mps 751 mmHg 34%
    21:00 +40°C° 0 mm 5 mps 752 mmHg 40%
    22:00 +39°C° 0 mm 5 mps 752 mmHg 43%
    23:00 +37°C° 0 mm 4 mps 752 mmHg 47%

    31 May, Sunday

    Time Temperature Precipitation Wind Pressure Humidity
    00:00 +37°C° 0 mm 4 mps 752 mmHg 51%
    01:00 +36°C° 0 mm 4 mps 751 mmHg 49%
    02:00 +36°C° 0 mm 4 mps 751 mmHg 48%
    03:00 +36°C° 0 mm 3 mps 751 mmHg 46%
    04:00 +35°C° 0 mm 3 mps 752 mmHg 48%
    05:00 +35°C° 0 mm 2 mps 752 mmHg 50%
    06:00 +33°C° 0 mm 1 mps 752 mmHg 53%
    07:00 +35°C° 0 mm 2 mps 753 mmHg 48%
    08:00 +37°C° 0 mm 2 mps 753 mmHg 44%
    09:00 +39°C° 0 mm 2 mps 754 mmHg 40%
    10:00 +40°C° 0 mm 3 mps 753 mmHg 35%
    11:00 +42°C° 0 mm 3 mps 753 mmHg 30%
    12:00 +44°C° 0 mm 4 mps 753 mmHg 25%
    13:00 +44°C° 0 mm 4 mps 752 mmHg 25%
    14:00 +45°C° 0 mm 5 mps 752 mmHg 26%
    15:00 +45°C° 0 mm 5 mps 751 mmHg 26%
    16:00 +43°C° 0 mm 5 mps 751 mmHg 33%
    17:00 +41°C° 0 mm 5 mps 751 mmHg 40%
    18:00 +40°C° 0 mm 5 mps 751 mmHg 47%
    19:00 +39°C° 0 mm 5 mps 751 mmHg 50%
    20:00 +38°C° 0 mm 4 mps 752 mmHg 53%
    21:00 +37°C° 0 mm 4 mps 752 mmHg 56%
    22:00 +37°C° 0 mm 4 mps 752 mmHg 58%
    23:00 +36°C° 0 mm 4 mps 752 mmHg 61%

    1 June, Monday

    Time Temperature Precipitation Wind Pressure Humidity
    00:00 +35°C° 0 mm 3 mps 752 mmHg 63%
    01:00 +35°C° 0 mm 3 mps 752 mmHg 61%
    02:00 +35°C° 0 mm 3 mps 752 mmHg 59%
    03:00 +35°C° 0 mm 3 mps 752 mmHg 57%
    04:00 +35°C° 0 mm 2 mps 752 mmHg 56%
    05:00 +35°C° 0 mm 2 mps 752 mmHg 54%
    06:00 +35°C° 0 mm 1 mps 753 mmHg 53%
    07:00 +37°C° 0 mm 2 mps 753 mmHg 48%
    08:00 +38°C° 0 mm 2 mps 754 mmHg 44%
    09:00 +40°C° 0 mm 2 mps 754 mmHg 39%
    10:00 +42°C° 0 mm 3 mps 753 mmHg 37%
    11:00 +43°C° 0 mm 4 mps 753 mmHg 34%
    12:00 +44°C° 0 mm 4 mps 752 mmHg 32%
    13:00 +43°C° 0 mm 5 mps 752 mmHg 35%
    14:00 +43°C° 0 mm 5 mps 751 mmHg 38%
    15:00 +42°C° 0 mm 6 mps 750 mmHg 41%
    16:00 +41°C° 0 mm 5 mps 750 mmHg 44%
    17:00 +40°C° 0 mm 4 mps 750 mmHg 46%
    18:00 +38°C° 0 mm 3 mps 750 mmHg 49%
    19:00 +38°C° 0 mm 3 mps 751 mmHg 50%
    20:00 +37°C° 0 mm 2 mps 751 mmHg 52%
    21:00 +37°C° 0 mm 2 mps 752 mmHg 54%
    22:00 +36°C° 0 mm 2 mps 752 mmHg 56%
    23:00 +36°C° 0 mm 2 mps 752 mmHg 58%

    2 June, Tuesday

    Time Temperature Precipitation Wind Pressure Humidity
    00:00 +35°C° 0 mm 2 mps 752 mmHg 61%
    01:00 +35°C° 0 mm 2 mps 752 mmHg 58%
    02:00 +35°C° 0 mm 2 mps 751 mmHg 55%
    03:00 +35°C° 0 mm 2 mps 751 mmHg 53%
    04:00 +35°C° 0 mm 2 mps 751 mmHg 53%
    05:00 +35°C° 0 mm 2 mps 752 mmHg 54%
    06:00 +35°C° 0 mm 2 mps 752 mmHg 54%
    07:00 +36°C° 0 mm 2 mps 753 mmHg 52%
    08:00 +37°C° 0 mm 2 mps 753 mmHg 49%
    09:00 +38°C° 0 mm 2 mps 753 mmHg 47%
    10:00 +39°C° 0 mm 3 mps 753 mmHg 43%
    11:00 +41°C° 0 mm 4 mps 752 mmHg 40%
    12:00 +43°C° 0 mm 4 mps 752 mmHg 37%
    13:00 +43°C° 0 mm 5 mps 751 mmHg 39%
    14:00 +42°C° 0 mm 6 mps 751 mmHg 41%
    15:00 +42°C° 0 mm 6 mps 750 mmHg 42%
    16:00 +40°C° 0 mm 6 mps 750 mmHg 48%
    17:00 +39°C° 0 mm 6 mps 750 mmHg 54%
    18:00 +36°C° 0 mm 6 mps 750 mmHg 59%
    19:00 +36°C° 0 mm 6 mps 751 mmHg 65%
    20:00 +35°C° 0 mm 5 mps 752 mmHg 71%
    21:00 +34°C° 0 mm 5 mps 752 mmHg 78%
    22:00 +34°C° 0.2 mm 5 mps 752 mmHg 77%
    23:00 +34°C° 0.2 mm 5 mps 753 mmHg 77%
    Show more